Weather History for Boscobel, WI

Change the Weather History Date:

Sunday, November 25, 2012

  Actual Average (KPDC) Record (KPDC)
Temperature  
Mean Temperature 29 °F -  
Max Temperature 39 °F 41 °F 61 °F (1988)
Min Temperature 19 °F 25 °F 0 °F (1991)
Degree Days  
Heating Degree Days 36    
Moisture  
Dew Point 21 °F    
Average Humidity 73    
Maximum Humidity 96    
Minimum Humidity 53    
Precipitation  
Precipitation 0.00 in - - ()
Sea Level Pressure  
Sea Level Pressure 29.99 in    
Wind  
Wind Speed 3 mph (West)    
Max Wind Speed 9 mph    
Max Gust Speed 16 mph    
Visibility 9 miles    
Events      
Averages and records for this station are not official NWS values.
T = Trace of Precipitation, MM = Missing Value Source: NWS Daily Summary

Daily Weather History Graph

Daily Weather History Graph

Search for Another Location

Airport:

Trip Planner

Search our weather history database for the weather conditions in past years. The results will help you decide how hot, cold, wet, or windy it might be!

Date:

Astronomy

Nov. 25, 2012 Rise Set
Actual Time 7:08 AM CST 4:30 PM CST
Civil Twilight 6:36 AM CST 5:02 PM CST
Nautical Twilight 6:01 AM CST 5:37 PM CST
Astronomical Twilight 5:27 AM CST 6:11 PM CST
Moon 2:50 PM CST (11/25) 4:19 AM CST (11/25)
Length of Visible Light 10h 25m
Length of Day
9h 22m
Waxing Gibbous, 93% of the Moon is Illuminated
Nov 25
Waxing Gibbous
Nov 28
Full
Dec 6
Last Quarter
Dec 13
New
Dec 19
First Quarter

Hourly Weather History & Observations

Time (CST) Temp. Windchill Dew Point Humidity Pressure Visibility Wind Dir Wind Speed Gust Speed Precip Events Conditions
12:53 AM 30.0 °F 26.5 °F 19.9 °F 66% 29.89 in 10.0 mi SW 3.5 mph - N/A   Overcast
1:53 AM 28.0 °F - 19.9 °F 72% 29.88 in 10.0 mi Calm Calm - N/A   Clear
2:53 AM 26.1 °F - 19.9 °F 78% 29.88 in 10.0 mi Calm Calm - N/A   Clear
3:53 AM 21.0 °F - 18.0 °F 88% 29.88 in 10.0 mi Calm Calm - N/A   Clear
4:53 AM 19.9 °F - 18.0 °F 92% 29.87 in 10.0 mi Calm Calm - N/A   Clear
5:53 AM 19.0 °F - 16.0 °F 88% 29.89 in 10.0 mi Calm Calm - N/A   Clear
6:53 AM 19.0 °F - 16.0 °F 88% 29.90 in 10.0 mi Calm Calm - N/A   Clear
7:53 AM 19.9 °F - 19.0 °F 96% 29.92 in 10.0 mi Calm Calm - N/A   Clear
8:53 AM 26.1 °F 21.9 °F 21.9 °F 84% 29.94 in 10.0 mi South 3.5 mph - N/A   Clear
9:53 AM 33.1 °F 27.7 °F 21.9 °F 64% 29.96 in 10.0 mi WNW 5.8 mph - N/A   Clear
10:53 AM 36.0 °F 29.0 °F 23.0 °F 59% 29.97 in 10.0 mi NNW 9.2 mph 16.1 mph N/A   Partly Cloudy
11:53 AM 37.9 °F 31.5 °F 23.0 °F 55% 29.97 in 10.0 mi NW 9.2 mph - N/A   Clear
12:53 PM 39.0 °F 35.7 °F 23.0 °F 53% 29.95 in 10.0 mi Variable 4.6 mph - N/A   Clear
1:53 PM 37.9 °F 32.7 °F 23.0 °F 55% 29.96 in 10.0 mi WSW 6.9 mph - N/A   Clear
2:53 PM 37.9 °F 33.5 °F 23.0 °F 55% 29.97 in 10.0 mi West 5.8 mph - N/A   Clear
3:53 PM 37.0 °F 34.5 °F 21.9 °F 54% 29.99 in 10.0 mi WSW 3.5 mph - N/A   Clear
4:53 PM 33.1 °F - 21.9 °F 64% 30.00 in 10.0 mi Calm Calm - N/A   Clear
5:53 PM 28.0 °F - 21.0 °F 75% 30.03 in 10.0 mi Calm Calm - N/A   Clear
6:44 PM 28.4 °F 24.6 °F 23.0 °F 80% 30.01 in 2.0 mi South 3.5 mph - N/A   Haze
6:53 PM 28.0 °F - 23.0 °F 81% 30.05 in 10.0 mi Calm Calm - N/A   Clear
7:53 PM 28.0 °F - 23.0 °F 81% 30.07 in 9.0 mi Calm Calm - N/A   Clear
8:53 PM 26.1 °F - 21.0 °F 81% 30.10 in 10.0 mi Calm Calm - N/A   Clear
9:40 PM 30.2 °F 22.6 °F 21.2 °F 69% 30.09 in 10.0 mi North 8.1 mph - N/A   Mostly Cloudy
9:53 PM 30.9 °F 22.8 °F 21.9 °F 69% 30.13 in 10.0 mi NNW 9.2 mph - N/A   Overcast
10:53 PM 27.0 °F 21.6 °F 19.9 °F 75% 30.15 in 10.0 mi NW 4.6 mph - N/A   Clear
11:53 PM 23.0 °F - 19.0 °F 85% 30.16 in 3.0 mi Calm Calm - N/A   Clear